11-07-2022, 00:00:05,    188,    0.0,   17.6,   0.00,   0.00, 1020.4,   55.3, -999.0
11-07-2022, 00:00:14,    187,    0.0,   17.6,   0.00,   0.00, 1020.4,   55.5, -999.0
11-07-2022, 00:00:25,    188,    0.0,   17.6,   0.00,   0.00, 1020.3,   55.5, -999.0
11-07-2022, 00:00:35,    188,    0.0,   17.6,   0.00,   0.00, 1020.4,   55.5, -999.0
11-07-2022, 00:00:44,    188,    0.0,   17.5,   0.00,   0.00, 1020.3,   55.4, -999.0
11-07-2022, 00:00:54,    187,    0.0,   17.6,   0.00,   0.00, 1020.4,   55.2, -999.0
11-07-2022, 00:01:04,    188,    0.0,   17.6,   0.00,   0.00, 1020.3,   55.2, -999.0
11-07-2022, 00:01:14,    188,    0.0,   17.5,   0.00,   0.00, 1020.4,   55.1, -999.0
11-07-2022, 00:01:24,    188,    0.0,   17.5,   0.00,   0.00, 1020.3,   55.0, -999.0
11-07-2022, 00:01:34,    188,    0.0,   17.5,   0.00,   0.00, 1020.3,   55.1, -999.0
11-07-2022, 00:01:44,    188,    0.0,   17.5,   0.00,   0.00, 1020.3,   55.1, -999.0
11-07-2022, 00:01:54,    187,    0.0,   17.5,   0.00,   0.00, 1020.3,   55.0, -999.0
11-07-2022, 00:02:04,    188,    0.0,   17.5,   0.00,   0.00, 1020.3,   54.9, -999.0
11-07-2022, 00:02:14,    188,    0.0,   17.4,   0.00,   0.00, 1020.3,   54.8, -999.0
11-07-2022, 00:02:24,    188,    0.0,   17.4,   0.00,   0.00, 1020.3,   54.2, -999.0
11-07-2022, 00:02:34,    188,    0.0,   17.4,   0.00,   0.00, 1020.3,   54.4, -999.0
11-07-2022, 00:02:44,    188,    0.0,   17.4,   0.00,   0.00, 1020.3,   54.1, -999.0
11-07-2022, 00:02:54,    188,    0.0,   17.4,   0.00,   0.00, 1020.3,   54.1, -999.0
11-07-2022, 00:03:04,    188,    0.0,   17.4,   0.00,   0.00, 1020.3,   53.9, -999.0
11-07-2022, 00:03:13,    188,    0.0,   17.4,   0.00,   0.00, 1020.3,   53.7, -999.0
11-07-2022, 00:03:23,    188,    0.0,   17.4,   0.00,   0.00, 1020.3,   53.8, -999.0
11-07-2022, 00:03:34,    188,    0.0,   17.3,   0.00,   0.00, 1020.2,   54.0, -999.0
11-07-2022, 00:03:43,    188,    0.0,   17.4,   0.00,   0.00, 1020.3,   54.1, -999.0
11-07-2022, 00:03:53,    188,    0.0,   17.4,   0.00,   0.00, 1020.3,   54.4, -999.0
11-07-2022, 00:04:03,    188,    0.0,   17.4,   0.00,   0.00, 1020.3,   54.6, -999.0
11-07-2022, 00:04:13,    188,    0.0,   17.4,   0.00,   0.00, 1020.3,   54.3, -999.0
11-07-2022, 00:04:23,    188,    0.0,   17.4,   0.00,   0.00, 1020.3,   54.3, -999.0
11-07-2022, 00:04:33,    188,    0.0,   17.4,   0.00,   0.00, 1020.3,   54.1, -999.0
11-07-2022, 00:04:43,    188,    0.0,   17.4,   0.00,   0.00, 1020.3,   53.7, -999.0
11-07-2022, 00:04:53,    188,    0.0,   17.4,   0.00,   0.00, 1020.3,   53.6, -999.0
11-07-2022, 00:05:03,    187,    0.0,   17.4,   0.00,   0.00, 1020.3,   53.6, -999.0
11-07-2022, 00:05:13,    188,    0.0,   17.3,   0.00,   0.00, 1020.3,   53.4, -999.0
11-07-2022, 00:05:23,    188,    0.0,   17.4,   0.00,   0.00, 1020.2,   53.2, -999.0
11-07-2022, 00:05:33,    188,    0.0,   17.4,   0.00,   0.00, 1020.3,   52.8, -999.0
11-07-2022, 00:05:43,    188,    0.0,   17.4,   0.00,   0.00, 1020.3,   52.7, -999.0
11-07-2022, 00:05:52,    188,    0.0,   17.4,   0.00,   0.00, 1020.3,   52.8, -999.0
11-07-2022, 00:06:03,    188,    0.0,   17.4,   0.00,   0.00, 1020.3,   52.9, -999.0
11-07-2022, 00:06:13,    188,    0.0,   17.4,   0.00,   0.00, 1020.3,   52.7, -999.0
11-07-2022, 00:06:22,    188,    0.0,   17.3,   0.00,   0.00, 1020.3,   52.4, -999.0
11-07-2022, 00:06:32,    188,    0.0,   17.3,   0.00,   0.00, 1020.3,   52.3, -999.0
11-07-2022, 00:06:42,    188,    0.0,   17.4,   0.00,   0.00, 1020.3,   52.3, -999.0
11-07-2022, 00:06:52,    188,    0.0,   17.4,   0.00,   0.00, 1020.3,   52.4, -999.0
11-07-2022, 00:07:02,    188,    0.0,   17.3,   0.00,   0.00, 1020.3,   52.5, -999.0
11-07-2022, 00:07:12,    188,    0.0,   17.3,   0.00,   0.00, 1020.3,   52.5, -999.0
11-07-2022, 00:07:22,    188,    0.0,   17.3,   0.00,   0.00, 1020.3,   52.5, -999.0
11-07-2022, 00:07:32,    187,    0.0,   17.3,   0.00,   0.00, 1020.3,   52.9, -999.0
11-07-2022, 00:07:42,    188,    0.0,   17.3,   0.00,   0.00, 1020.3,   53.1, -999.0
11-07-2022, 00:07:52,    188,    0.0,   17.4,   0.00,   0.00, 1020.3,   53.1, -999.0
11-07-2022, 00:08:02,    187,    0.0,   17.3,   0.00,   0.00, 1020.3,   53.3, -999.0
11-07-2022, 00:08:12,    188,    0.0,   17.4,   0.00,   0.00, 1020.3,   53.4, -999.0
11-07-2022, 00:08:21,    188,    0.0,   17.3,   0.00,   0.00, 1020.3,   53.0, -999.0
11-07-2022, 00:08:32,    187,    0.0,   17.4,   0.00,   0.00, 1020.3,   52.6, -999.0
11-07-2022, 00:08:42,    188,    0.0,   17.4,   0.00,   0.00, 1020.3,   52.3, -999.0
11-07-2022, 00:08:51,    188,    0.0,   17.4,   0.00,   0.00, 1020.3,   52.3, -999.0
11-07-2022, 00:09:02,    188,    0.0,   17.5,   0.00,   0.00, 1020.3,   52.5, -999.0
11-07-2022, 00:09:12,    188,    0.0,   17.5,   0.00,   0.00, 1020.3,   52.4, -999.0
11-07-2022, 00:09:21,    188,    0.0,   17.4,   0.00,   0.00, 1020.3,   52.4, -999.0
11-07-2022, 00:09:31,    188,    0.0,   17.4,   0.00,   0.00, 1020.3,   52.2, -999.0
11-07-2022, 00:09:41,    188,    0.0,   17.4,   0.00,   0.00, 1020.3,   52.3, -999.0
11-07-2022, 00:09:51,    188,    0.0,   17.5,   0.00,   0.00, 1020.3,   52.3, -999.0
11-07-2022, 00:10:01,    188,    0.0,   17.5,   0.00,   0.00, 1020.3,   52.5, -999.0
11-07-2022, 00:10:11,    188,    0.0,   17.5,   0.00,   0.00, 1020.3,   52.6, -999.0
11-07-2022, 00:10:21,    188,    0.0,   17.5,   0.00,   0.00, 1020.3,   53.0, -999.0
11-07-2022, 00:10:31,    188,    0.0,   17.5,   0.00,   0.00, 1020.3,   53.6, -999.0
11-07-2022, 00:10:41,    188,    0.0,   17.6,   0.00,   0.00, 1020.3,   54.2, -999.0
11-07-2022, 00:10:51,    188,    0.0,   17.6,   0.00,   0.00, 1020.3,   54.6, -999.0
11-07-2022, 00:11:01,    188,    0.0,   17.6,   0.00,   0.00, 1020.3,   54.8, -999.0
11-07-2022, 00:11:11,    188,    0.0,   17.6,   0.00,   0.00, 1020.3,   54.8, -999.0
11-07-2022, 00:11:21,    188,    0.0,   17.6,   0.00,   0.00, 1020.3,   54.7, -999.0
11-07-2022, 00:11:31,    188,    0.0,   17.6,   0.00,   0.00, 1020.3,   54.7, -999.0
11-07-2022, 00:11:41,    188,    0.0,   17.6,   0.00,   0.00, 1020.3,   54.5, -999.0
11-07-2022, 00:11:50,    188,    0.0,   17.6,   0.00,   0.00, 1020.3,   54.5, -999.0
11-07-2022, 00:12:00,    188,    0.0,   17.6,   0.00,   0.00, 1020.3,   54.6, -999.0
11-07-2022, 00:12:11,    188,    0.0,   17.5,   0.00,   0.00, 1020.3,   54.7, -999.0
11-07-2022, 00:12:20,    188,    0.0,   17.6,   0.00,   0.00, 1020.3,   54.7, -999.0
11-07-2022, 00:12:30,    188,    0.0,   17.5,   0.00,   0.00, 1020.3,   54.9, -999.0
11-07-2022, 00:12:40,    188,    0.0,   17.5,   0.00,   0.00, 1020.3,   55.4, -999.0
11-07-2022, 00:12:50,    187,    0.0,   17.4,   0.00,   0.00, 1020.3,   56.1, -999.0
11-07-2022, 00:13:00,    188,    0.0,   17.5,   0.00,   0.00, 1020.3,   56.3, -999.0
11-07-2022, 00:13:10,    188,    0.0,   17.5,   0.00,   0.00, 1020.3,   56.5, -999.0
11-07-2022, 00:13:20,    188,    0.0,   17.5,   0.00,   0.00, 1020.3,   56.5, -999.0
11-07-2022, 00:13:30,    188,    0.0,   17.4,   0.00,   0.00, 1020.3,   56.4, -999.0
11-07-2022, 00:13:40,    188,    0.0,   17.4,   0.00,   0.00, 1020.3,   56.0, -999.0
11-07-2022, 00:13:50,    188,    0.0,   17.4,   0.00,   0.00, 1020.3,   55.9, -999.0
11-07-2022, 00:14:00,    188,    0.0,   17.4,   0.00,   0.00, 1020.3,   56.0, -999.0
11-07-2022, 00:14:10,    188,    0.0,   17.4,   0.00,   0.00, 1020.3,   56.3, -999.0
11-07-2022, 00:14:20,    187,    0.0,   17.4,   0.00,   0.00, 1020.2,   56.6, -999.0
11-07-2022, 00:14:29,    187,    0.0,   17.4,   0.00,   0.00, 1020.3,   56.7, -999.0
11-07-2022, 00:14:40,    188,    0.0,   17.3,   0.00,   0.00, 1020.3,   56.8, -999.0
11-07-2022, 00:14:49,    188,    0.0,   17.3,   0.00,   0.00, 1020.3,   57.0, -999.0
11-07-2022, 00:14:59,    188,    0.0,   17.2,   0.00,   0.00, 1020.3,   57.3, -999.0
11-07-2022, 00:15:09,    188,    0.0,   17.2,   0.00,   0.00, 1020.3,   57.4, -999.0
11-07-2022, 00:15:19,    188,    0.0,   17.2,   0.00,   0.00, 1020.3,   57.4, -999.0
11-07-2022, 00:15:29,    188,    0.0,   17.2,   0.00,   0.00, 1020.2,   57.8, -999.0
11-07-2022, 00:15:39,    188,    0.0,   17.2,   0.00,   0.00, 1020.2,   57.7, -999.0
11-07-2022, 00:15:49,    188,    0.0,   17.3,   0.00,   0.00, 1020.2,   57.5, -999.0
11-07-2022, 00:15:59,    188,    0.0,   17.2,   0.00,   0.00, 1020.2,   57.9, -999.0
11-07-2022, 00:16:09,    188,    0.0,   17.2,   0.00,   0.00, 1020.2,   57.8, -999.0
11-07-2022, 00:16:19,    187,    0.0,   17.2,   0.00,   0.00, 1020.2,   58.0, -999.0
11-07-2022, 00:16:29,    188,    0.0,   17.2,   0.00,   0.00, 1020.3,   57.9, -999.0
11-07-2022, 00:16:39,    188,    0.0,   17.2,   0.00,   0.00, 1020.2,   57.9, -999.0
11-07-2022, 00:16:49,    188,    0.0,   17.1,   0.00,   0.00, 1020.2,   58.0, -999.0
11-07-2022, 00:16:58,    188,    0.0,   17.1,   0.00,   0.00, 1020.2,   58.0, -999.0
11-07-2022, 00:17:09,    188,    0.0,   17.2,   0.00,   0.00, 1020.3,   58.1, -999.0
11-07-2022, 00:17:19,    188,    0.0,   17.1,   0.00,   0.00, 1020.2,   58.2, -999.0
11-07-2022, 00:17:28,    188,    0.0,   17.2,   0.00,   0.00, 1020.2,   58.2, -999.0
11-07-2022, 00:17:38,    188,    0.0,   17.1,   0.00,   0.00, 1020.2,   58.2, -999.0
11-07-2022, 00:17:49,    187,    0.0,   17.1,   0.00,   0.00, 1020.3,   58.3, -999.0
11-07-2022, 00:17:58,    188,    0.0,   17.1,   0.00,   0.00, 1020.2,   58.3, -999.0
11-07-2022, 00:18:08,    188,    0.0,   17.1,   0.00,   0.00, 1020.2,   58.3, -999.0
11-07-2022, 00:18:18,    187,    0.0,   17.1,   0.00,   0.00, 1020.2,   58.3, -999.0
11-07-2022, 00:18:28,    188,    0.0,   17.1,   0.00,   0.00, 1020.2,   58.3, -999.0
11-07-2022, 00:18:38,    188,    0.0,   17.1,   0.00,   0.00, 1020.2,   58.4, -999.0
11-07-2022, 00:18:48,    188,    0.0,   17.1,   0.00,   0.00, 1020.2,   58.3, -999.0
11-07-2022, 00:18:58,    188,    0.0,   17.1,   0.00,   0.00, 1020.2,   58.4, -999.0
11-07-2022, 00:19:08,    188,    0.0,   17.1,   0.00,   0.00, 1020.2,   58.4, -999.0
11-07-2022, 00:19:18,    188,    0.0,   17.1,   0.00,   0.00, 1020.2,   58.5, -999.0
11-07-2022, 00:19:28,    188,    0.0,   17.1,   0.00,   0.00, 1020.2,   58.4, -999.0
11-07-2022, 00:19:38,    188,    0.0,   17.1,   0.00,   0.00, 1020.2,   58.5, -999.0
11-07-2022, 00:19:48,    188,    0.0,   17.1,   0.00,   0.00, 1020.2,   58.6, -999.0
11-07-2022, 00:19:58,    188,    0.0,   17.1,   0.00,   0.00, 1020.2,   58.7, -999.0
11-07-2022, 00:20:08,    188,    0.0,   17.1,   0.00,   0.00, 1020.2,   58.7, -999.0
11-07-2022, 00:20:18,    188,    0.0,   17.0,   0.00,   0.00, 1020.2,   58.7, -999.0
11-07-2022, 00:20:27,    188,    0.0,   17.1,   0.00,   0.00, 1020.2,   58.9, -999.0
11-07-2022, 00:20:37,    188,    0.0,   17.0,   0.00,   0.00, 1020.2,   58.9, -999.0
11-07-2022, 00:20:48,    188,    0.0,   17.1,   0.00,   0.00, 1020.2,   58.9, -999.0
11-07-2022, 00:20:57,    187,    0.0,   17.1,   0.00,   0.00, 1020.2,   58.9, -999.0
11-07-2022, 00:21:07,    188,    0.0,   17.0,   0.00,   0.00, 1020.2,   59.1, -999.0
11-07-2022, 00:21:17,    187,    0.0,   17.0,   0.00,   0.00, 1020.2,   59.0, -999.0
11-07-2022, 00:21:27,    188,    0.0,   17.0,   0.00,   0.00, 1020.2,   59.2, -999.0
11-07-2022, 00:21:37,    188,    0.0,   17.0,   0.00,   0.00, 1020.2,   59.2, -999.0
11-07-2022, 00:21:47,    188,    0.0,   17.0,   0.00,   0.00, 1020.2,   59.2, -999.0
11-07-2022, 00:21:57,    188,    0.0,   17.0,   0.00,   0.00, 1020.2,   59.3, -999.0
11-07-2022, 00:22:07,    188,    0.0,   16.9,   0.00,   0.00, 1020.2,   59.3, -999.0
11-07-2022, 00:22:17,    188,    0.0,   17.0,   0.00,   0.00, 1020.2,   59.3, -999.0
11-07-2022, 00:22:27,    187,    0.0,   16.9,   0.00,   0.00, 1020.2,   59.4, -999.0
11-07-2022, 00:22:37,    188,    0.0,   16.9,   0.00,   0.00, 1020.2,   59.3, -999.0
11-07-2022, 00:22:47,    187,    0.0,   16.9,   0.00,   0.00, 1020.2,   59.5, -999.0
11-07-2022, 00:22:57,    188,    0.0,   16.9,   0.00,   0.00, 1020.2,   59.4, -999.0
11-07-2022, 00:23:06,    185,    0.0,   16.9,   0.00,   0.00, 1020.2,   59.6, -999.0
11-07-2022, 00:23:17,    188,    0.0,   17.0,   0.00,   0.00, 1020.2,   59.5, -999.0
11-07-2022, 00:23:26,    188,    0.0,   16.8,   0.00,   0.00, 1020.2,   59.6, -999.0
11-07-2022, 00:23:36,    188,    0.0,   16.8,   0.00,   0.00, 1020.2,   59.6, -999.0
11-07-2022, 00:23:46,    188,    0.0,   16.9,   0.00,   0.00, 1020.2,   59.7, -999.0
11-07-2022, 00:23:56,    188,    0.0,   16.9,   0.00,   0.00, 1020.2,   59.7, -999.0
11-07-2022, 00:24:06,    187,    0.0,   16.9,   0.00,   0.00, 1020.2,   59.8, -999.0
11-07-2022, 00:24:17,    188,    0.0,   16.9,   0.00,   0.00, 1020.2,   59.9, -999.0
11-07-2022, 00:24:26,    187,    0.0,   16.9,   0.00,   0.00, 1020.2,   59.9, -999.0
11-07-2022, 00:24:36,    188,    0.0,   16.9,   0.00,   0.00, 1020.2,   59.9, -999.0
11-07-2022, 00:24:46,    187,    0.0,   16.9,   0.00,   0.00, 1020.2,   59.8, -999.0
11-07-2022, 00:24:56,    188,    0.0,   16.9,   0.00,   0.00, 1020.2,   59.8, -999.0
11-07-2022, 00:25:06,    188,    0.0,   16.9,   0.00,   0.00, 1020.2,   59.8, -999.0
11-07-2022, 00:25:16,    188,    0.0,   16.9,   0.00,   0.00, 1020.2,   59.9, -999.0
11-07-2022, 00:25:26,    187,    0.0,   16.9,   0.00,   0.00, 1020.2,   59.9, -999.0
11-07-2022, 00:25:36,    187,    0.0,   16.9,   0.00,   0.00, 1020.2,   59.9, -999.0
11-07-2022, 00:25:46,    188,    0.0,   16.9,   0.00,   0.00, 1020.2,   60.0, -999.0
11-07-2022, 00:25:56,    188,    0.0,   17.0,   0.00,   0.00, 1020.2,   60.0, -999.0
11-07-2022, 00:26:05,    188,    0.0,   17.0,   0.00,   0.00, 1020.2,   59.9, -999.0
11-07-2022, 00:26:15,    187,    0.0,   17.0,   0.00,   0.00, 1020.1,   60.0, -999.0
11-07-2022, 00:26:26,    188,    0.0,   17.0,   0.00,   0.00, 1020.2,   60.1, -999.0
11-07-2022, 00:26:35,    188,    0.0,   16.9,   0.00,   0.00, 1020.2,   59.8, -999.0
11-07-2022, 00:26:45,    187,    0.0,   16.9,   0.00,   0.00, 1020.2,   59.9, -999.0
11-07-2022, 00:26:55,    188,    0.0,   17.0,   0.00,   0.00, 1020.2,   60.0, -999.0
11-07-2022, 00:27:05,    188,    0.0,   17.0,   0.00,   0.00, 1020.2,   60.1, -999.0
11-07-2022, 00:27:15,    188,    0.0,   17.0,   0.00,   0.00, 1020.2,   60.0, -999.0
11-07-2022, 00:27:25,    188,    0.0,   17.0,   0.00,   0.00, 1020.2,   59.9, -999.0
11-07-2022, 00:27:35,    187,    0.0,   17.0,   0.00,   0.00, 1020.2,   59.9, -999.0
11-07-2022, 00:27:45,    188,    0.0,   17.0,   0.00,   0.00, 1020.1,   59.9, -999.0
11-07-2022, 00:27:55,    188,    0.0,   17.0,   0.00,   0.00, 1020.1,   60.0, -999.0
11-07-2022, 00:28:05,    188,    0.0,   16.9,   0.00,   0.00, 1020.2,   59.9, -999.0
11-07-2022, 00:28:15,    188,    0.0,   17.0,   0.00,   0.00, 1020.2,   60.0, -999.0
11-07-2022, 00:28:25,    187,    0.0,   16.9,   0.00,   0.00, 1020.2,   60.1, -999.0
11-07-2022, 00:28:35,    188,    0.0,   16.9,   0.00,   0.00, 1020.2,   59.9, -999.0
11-07-2022, 00:28:44,    188,    0.0,   17.0,   0.00,   0.00, 1020.2,   60.1, -999.0
11-07-2022, 00:28:55,    187,    0.0,   16.9,   0.00,   0.00, 1020.2,   60.0, -999.0
11-07-2022, 00:29:05,    188,    0.0,   16.9,   0.00,   0.00, 1020.2,   60.1, -999.0
11-07-2022, 00:29:14,    188,    0.0,   16.9,   0.00,   0.00, 1020.2,   60.1, -999.0
11-07-2022, 00:29:25,    188,    0.0,   16.9,   0.00,   0.00, 1020.2,   60.2, -999.0
11-07-2022, 00:29:34,    188,    0.0,   16.9,   0.00,   0.00, 1020.2,   60.1, -999.0
11-07-2022, 00:29:44,    188,    0.0,   16.9,   0.00,   0.00, 1020.2,   60.1, -999.0
11-07-2022, 00:29:54,    188,    0.0,   16.9,   0.00,   0.00, 1020.2,   60.2, -999.0
11-07-2022, 00:30:04,    188,    0.0,   16.9,   0.00,   0.00, 1020.2,   60.2, -999.0
11-07-2022, 00:30:14,    187,    0.0,   16.8,   0.00,   0.00, 1020.1,   60.2, -999.0
11-07-2022, 00:30:24,    188,    0.0,   16.9,   0.00,   0.00, 1020.1,   60.3, -999.0
11-07-2022, 00:30:34,    187,    0.0,   16.9,   0.00,   0.00, 1020.2,   60.4, -999.0
11-07-2022, 00:30:44,    187,    0.0,   16.9,   0.00,   0.00, 1020.2,   60.4, -999.0
11-07-2022, 00:30:54,    187,    0.0,   16.8,   0.00,   0.00, 1020.2,   60.5, -999.0
11-07-2022, 00:31:04,    188,    0.0,   16.8,   0.00,   0.00, 1020.1,   60.5, -999.0
11-07-2022, 00:31:14,    187,    0.0,   16.8,   0.00,   0.00, 1020.2,   60.4, -999.0
11-07-2022, 00:31:24,    188,    0.0,   16.8,   0.00,   0.00, 1020.2,   60.5, -999.0
11-07-2022, 00:31:34,    188,    0.0,   16.7,   0.00,   0.00, 1020.1,   60.5, -999.0
11-07-2022, 00:31:43,    188,    0.0,   16.7,   0.00,   0.00, 1020.2,   60.7, -999.0
11-07-2022, 00:31:54,    188,    0.0,   16.7,   0.00,   0.00, 1020.2,   60.6, -999.0
11-07-2022, 00:32:04,    188,    0.0,   16.7,   0.00,   0.00, 1020.2,   60.7, -999.0
11-07-2022, 00:32:13,    187,    0.0,   16.8,   0.00,   0.00, 1020.1,   60.5, -999.0
11-07-2022, 00:32:23,    188,    0.0,   16.8,   0.00,   0.00, 1020.2,   60.5, -999.0
11-07-2022, 00:32:33,    188,    0.0,   16.8,   0.00,   0.00, 1020.2,   60.6, -999.0
11-07-2022, 00:32:43,    188,    0.0,   16.8,   0.00,   0.00, 1020.2,   60.5, -999.0
11-07-2022, 00:32:53,    187,    0.0,   16.8,   0.00,   0.00, 1020.2,   60.5, -999.0
11-07-2022, 00:33:03,    188,    0.0,   16.8,   0.00,   0.00, 1020.1,   60.6, -999.0
11-07-2022, 00:33:13,    188,    0.0,   16.7,   0.00,   0.00, 1020.1,   60.6, -999.0
11-07-2022, 00:33:23,    188,    0.0,   16.7,   0.00,   0.00, 1020.2,   60.7, -999.0
11-07-2022, 00:33:33,    188,    0.0,   16.7,   0.00,   0.00, 1020.2,   60.7, -999.0
11-07-2022, 00:33:43,    187,    0.0,   16.7,   0.00,   0.00, 1020.2,   60.7, -999.0
11-07-2022, 00:33:53,    188,    0.0,   16.8,   0.00,   0.00, 1020.2,   60.7, -999.0
11-07-2022, 00:34:03,    188,    0.0,   16.7,   0.00,   0.00, 1020.1,   60.8, -999.0
11-07-2022, 00:34:13,    188,    0.0,   16.8,   0.00,   0.00, 1020.1,   60.6, -999.0
11-07-2022, 00:34:22,    188,    0.0,   16.8,   0.00,   0.00, 1020.2,   60.8, -999.0
11-07-2022, 00:34:33,    188,    0.0,   16.8,   0.00,   0.00, 1020.2,   60.7, -999.0
11-07-2022, 00:34:43,    188,    0.0,   16.9,   0.00,   0.00, 1020.2,   60.9, -999.0
11-07-2022, 00:34:52,    187,    0.0,   16.8,   0.00,   0.00, 1020.1,   60.8, -999.0
11-07-2022, 00:35:03,    188,    0.0,   16.8,   0.00,   0.00, 1020.2,   60.8, -999.0
11-07-2022, 00:35:12,    188,    0.0,   16.8,   0.00,   0.00, 1020.2,   60.8, -999.0
11-07-2022, 00:35:22,    188,    0.0,   16.9,   0.00,   0.00, 1020.2,   60.7, -999.0
11-07-2022, 00:35:32,    188,    0.0,   16.9,   0.00,   0.00, 1020.2,   60.7, -999.0
11-07-2022, 00:35:42,    188,    0.0,   16.9,   0.00,   0.00, 1020.2,   60.6, -999.0
11-07-2022, 00:35:52,    188,    0.0,   16.9,   0.00,   0.00, 1020.1,   60.6, -999.0
11-07-2022, 00:36:02,    188,    0.0,   16.9,   0.00,   0.00, 1020.2,   60.5, -999.0
11-07-2022, 00:36:12,    188,    0.0,   16.9,   0.00,   0.00, 1020.1,   60.6, -999.0
11-07-2022, 00:36:22,    188,    0.0,   16.9,   0.00,   0.00, 1020.1,   60.5, -999.0
11-07-2022, 00:36:32,    187,    0.0,   16.9,   0.00,   0.00, 1020.2,   60.5, -999.0
11-07-2022, 00:36:42,    188,    0.0,   16.8,   0.00,   0.00, 1020.1,   60.6, -999.0
11-07-2022, 00:36:52,    188,    0.0,   16.8,   0.00,   0.00, 1020.1,   60.7, -999.0
11-07-2022, 00:37:02,    187,    0.0,   16.9,   0.00,   0.00, 1020.1,   60.7, -999.0
11-07-2022, 00:37:12,    188,    0.0,   16.9,   0.00,   0.00, 1020.1,   60.8, -999.0
11-07-2022, 00:37:21,    188,    0.0,   16.9,   0.00,   0.00, 1020.1,   60.7, -999.0
11-07-2022, 00:37:32,    187,    0.0,   16.9,   0.00,   0.00, 1020.1,   60.8, -999.0
11-07-2022, 00:37:42,    188,    0.0,   16.9,   0.00,   0.00, 1020.1,   60.7, -999.0
11-07-2022, 00:37:51,    188,    0.0,   16.9,   0.00,   0.00, 1020.1,   60.7, -999.0
11-07-2022, 00:38:01,    188,    0.0,   16.9,   0.00,   0.00, 1020.2,   60.7, -999.0
11-07-2022, 00:38:12,    188,    0.0,   16.9,   0.00,   0.00, 1020.1,   60.7, -999.0
11-07-2022, 00:38:21,    187,    0.0,   16.8,   0.00,   0.00, 1020.2,   60.6, -999.0
11-07-2022, 00:38:31,    188,    0.0,   16.8,   0.00,   0.00, 1020.2,   60.7, -999.0
11-07-2022, 00:38:41,    188,    0.0,   16.8,   0.00,   0.00, 1020.1,   60.6, -999.0
11-07-2022, 00:38:51,    188,    0.0,   16.8,   0.00,   0.00, 1020.1,   60.5, -999.0
11-07-2022, 00:39:01,    188,    0.0,   16.9,   0.00,   0.00, 1020.2,   60.8, -999.0
11-07-2022, 00:39:11,    188,    0.0,   16.8,   0.00,   0.00, 1020.2,   60.7, -999.0
11-07-2022, 00:39:21,    188,    0.0,   16.9,   0.00,   0.00, 1020.1,   60.7, -999.0
11-07-2022, 00:39:31,    188,    0.0,   16.9,   0.00,   0.00, 1020.2,   60.8, -999.0
11-07-2022, 00:39:41,    187,    0.0,   16.9,   0.00,   0.00, 1020.2,   60.7, -999.0
11-07-2022, 00:39:51,    188,    0.0,   16.9,   0.00,   0.00, 1020.2,   60.6, -999.0
11-07-2022, 00:40:01,    188,    0.0,   16.9,   0.00,   0.00, 1020.1,   60.6, -999.0
11-07-2022, 00:40:11,    188,    0.0,   16.9,   0.00,   0.00, 1020.1,   60.6, -999.0
11-07-2022, 00:40:21,    188,    0.0,   16.8,   0.00,   0.00, 1020.2,   60.6, -999.0
11-07-2022, 00:40:30,    188,    0.0,   16.9,   0.00,   0.00, 1020.1,   60.7, -999.0
11-07-2022, 00:40:41,    187,    0.0,   16.8,   0.00,   0.00, 1020.2,   60.8, -999.0
11-07-2022, 00:40:50,    188,    0.0,   16.8,   0.00,   0.00, 1020.2,   60.8, -999.0
11-07-2022, 00:41:00,    188,    0.0,   16.9,   0.00,   0.00, 1020.2,   60.8, -999.0
11-07-2022, 00:41:10,    188,    0.0,   16.9,   0.00,   0.00, 1020.2,   60.8, -999.0
11-07-2022, 00:41:20,    188,    0.0,   16.9,   0.00,   0.00, 1020.2,   60.9, -999.0
11-07-2022, 00:41:30,    188,    0.0,   16.9,   0.00,   0.00, 1020.2,   60.8, -999.0
11-07-2022, 00:41:40,    188,    0.0,   16.9,   0.00,   0.00, 1020.2,   60.7, -999.0
11-07-2022, 00:41:50,    188,    0.0,   16.9,   0.00,   0.00, 1020.2,   60.6, -999.0
11-07-2022, 00:42:00,    188,    0.0,   16.9,   0.00,   0.00, 1020.2,   60.4, -999.0
11-07-2022, 00:42:10,    187,    0.0,   16.9,   0.00,   0.00, 1020.1,   60.4, -999.0
11-07-2022, 00:42:20,    187,    0.0,   16.8,   0.00,   0.00, 1020.2,   60.4, -999.0
11-07-2022, 00:42:30,    187,    0.0,   16.9,   0.00,   0.00, 1020.2,   60.4, -999.0
11-07-2022, 00:42:40,    188,    0.0,   16.9,   0.00,   0.00, 1020.1,   60.5, -999.0
11-07-2022, 00:42:50,    188,    0.0,   16.8,   0.00,   0.00, 1020.1,   60.6, -999.0
11-07-2022, 00:42:59,    188,    0.0,   16.7,   0.00,   0.00, 1020.1,   60.5, -999.0
11-07-2022, 00:43:10,    188,    0.0,   16.7,   0.00,   0.00, 1020.1,   60.7, -999.0
11-07-2022, 00:43:20,    188,    0.0,   16.7,   0.00,   0.00, 1020.1,   60.7, -999.0
11-07-2022, 00:43:29,    188,    0.0,   16.6,   0.00,   0.00, 1020.1,   60.8, -999.0
11-07-2022, 00:43:40,    188,    0.0,   16.5,   0.00,   0.00, 1020.2,   60.8, -999.0
11-07-2022, 00:43:50,    187,    0.0,   16.6,   0.00,   0.00, 1020.1,   60.9, -999.0
11-07-2022, 00:43:59,    188,    0.0,   16.5,   0.00,   0.00, 1020.1,   60.9, -999.0
11-07-2022, 00:44:09,    188,    0.0,   16.5,   0.00,   0.00, 1020.1,   61.1, -999.0
11-07-2022, 00:44:19,    188,    0.0,   16.5,   0.00,   0.00, 1020.1,   61.2, -999.0
11-07-2022, 00:44:29,    188,    0.0,   16.5,   0.00,   0.00, 1020.1,   61.1, -999.0
11-07-2022, 00:44:39,    187,    0.0,   16.5,   0.00,   0.00, 1020.1,   61.2, -999.0
11-07-2022, 00:44:49,    188,    0.0,   16.5,   0.00,   0.00, 1020.1,   61.3, -999.0
11-07-2022, 00:44:59,    188,    0.0,   16.5,   0.00,   0.00, 1020.1,   61.3, -999.0
11-07-2022, 00:45:09,    188,    0.0,   16.5,   0.00,   0.00, 1020.1,   61.4, -999.0
11-07-2022, 00:45:19,    187,    0.0,   16.5,   0.00,   0.00, 1020.1,   61.4, -999.0
11-07-2022, 00:45:29,    188,    0.0,   16.5,   0.00,   0.00, 1020.1,   61.4, -999.0
11-07-2022, 00:45:39,    188,    0.0,   16.6,   0.00,   0.00, 1020.1,   61.6, -999.0
11-07-2022, 00:45:49,    188,    0.0,   16.6,   0.00,   0.00, 1020.1,   61.4, -999.0
11-07-2022, 00:45:59,    188,    0.0,   16.6,   0.00,   0.00, 1020.1,   61.5, -999.0
11-07-2022, 00:46:09,    188,    0.0,   16.5,   0.00,   0.00, 1020.1,   61.3, -999.0
11-07-2022, 00:46:19,    188,    0.0,   16.6,   0.00,   0.00, 1020.1,   61.4, -999.0
11-07-2022, 00:46:28,    188,    0.0,   16.6,   0.00,   0.00, 1020.1,   61.4, -999.0
11-07-2022, 00:46:38,    188,    0.0,   16.5,   0.00,   0.00, 1020.1,   61.5, -999.0